Regional Weather Roundup
Issued by NWS Green Bay, WI

Home | Current Version | Previous Version | Text Only | Print | Product List | Glossary On
Versions: 1 2 3 4 5 6 7 8 9 10 11 12 13 14 15 16 17 18 19 20 21 22 23 24 25 26 27 28 29 30 31 32 33 34 35 36 37 38 39 40 41 42 43 44 45 46 47 48 49 50
000
ASUS43 KGRB 221410
RWRGRB

NORTH-CENTRAL AND NORTHEAST WISCONSIN REGIONAL WEATHER ROUNDUP
NATIONAL WEATHER SERVICE GREEN BAY WI
900 AM CDT FRI AUG 22 2014

WIZ005-009-010>012-018-019-221500-
NORTH CENTRAL WISCONSIN

CITY           SKY/WX    TMP DP  RH WIND       PRES   REMARKS
IRONWOOD       CLOUDY    66  66 100 E3        29.93S
MANITOWISH WTR CLOUDY    65  65 100 CALM      29.97R FOG
ARBOR VITAE    CLOUDY    66  64  93 SE3       29.97R FOG
EAGLE RIVER    CLOUDY    64  64  99 CALM      29.97R FOG
LAND O LAKES   CLOUDY    65  65  97 E3        29.99R FOG
RHINELANDER    FOG       64  64 100 E5        29.97S VSB 1
PHILLIPS       CLOUDY    66  65  99 CALM      29.95R FOG
ANTIGO         CLOUDY    64  64 100 SE8       29.97S FOG
TOMAHAWK       CLOUDY    65  64  96 CALM      29.97R FOG
MERRILL        DRZL/FOG  66  66 100 SE7       29.95S VSB 1
$$

WIZ013-073-221500-
NORTHEAST WISCONSIN

CITY           SKY/WX    TMP DP  RH WIND       PRES   REMARKS
IRON MOUNTAIN  CLOUDY    65  62  90 E5        29.97S FOG
MARINETTE      CLOUDY    68  66  94 SE5       29.96R
OCONTO         CLOUDY    69  68  99 E3        29.95S
$$

WIZ017-030-035>037-045-221500-
CENTRAL WISCONSIN

CITY           SKY/WX    TMP DP  RH WIND       PRES   REMARKS
MEDFORD        FOG       67  67 100 SE5       29.95R VSB 1/4
WAUSAU         CLOUDY    66  65  96 SE7       29.94R FOG
MOSINEE        FOG       66  66 100 E5        29.96S VSB 1
MARSHFIELD     FOG       71  70  96 SE7       29.94R VSB 1/4
WISC RAPIDS    CLOUDY    73  70  90 SE7       29.95S
STEVENS POINT  CLOUDY    66  66 100 E6        29.96S FOG
WAUPACA        FOG       70  69  95 CALM      29.96R VSB<1/4
SHAWANO        CLOUDY    70  67  90 CALM      29.96S FOG
CLINTONVILLE   FOG       66  66 100 E3        29.95S VSB 3/4
$$

WIZ038-039-048-051-221500-
FOX VALLEY

CITY           SKY/WX    TMP DP  RH WIND       PRES   REMARKS
NWS GREEN BAY  CLOUDY    70  68  93 SE5       29.95S
APPLETON         N/A     70  68  94 VRB5      29.96S FOG
OSHKOSH        CLOUDY    72  70  93 E7        29.94F FOG
FOND DU LAC    CLOUDY    75  70  84 CALM      29.94S
$$

WIZ022-050-052-221500-
EAST CENTRAL WISCONSIN

CITY           SKY/WX    TMP DP  RH WIND       PRES   REMARKS
STURGEON BAY   CLOUDY    66  64  94 SE3       29.97S
MANITOWOC      CLOUDY    70  69  97 S7        29.96F FOG
SHEBOYGAN      CLOUDY    69  68  96 E3        29.96S FOG
$$

LMZ563-521-522-541>543-221500-
LAKESHORE

STATION/POSITION TIME  TEMP    WIND        PRES    VSBY  WAVE
                       AIR SEA DIR/SP/G                  HT/PER
                 (UTC) (F)     (DEG/KT/KT) (MB)    (MI)  (FT/S)
SHEBOYGAN LKSHOR 1400   67 64   80/  4/  4 1014.5S
KEWAUNEE LKSHORE 1400   66      CALM  /  1 1013.7S
NORTHPORT PIER   1400   65     100/  4/  4 1014.9S
N MID LAKE BUOY  1400   65 64  110/  6/  8 1014.6R         0
S GREEN BAY BUOY 1300   68     VRB  6      1015.4R
SISTER BAY LKSHO 1300   67        CALM       N/A
CHAMBERS ISLAND  1400   68      50/  2/  3 1014.9R
MENOMINEE LKSHOR 1400   67     120/  4/  5 1015.2R
$$



USA.gov is the U.S. government's official web portal to all federal, state and local government web resources and services.